This demonstration page uses our WeatherBlox Daily Observations layout. Learn more.

Left ArrowRight Arrow

39.29038, -76.61219

Hourly Observations for June 24, 2022

Temp ( °F °C ) Dew Point ( °F °C ) Humidity (%) Winds ( mph kmh ) Pressure ( in mb ) Visibility ( mi km ) Precip ( " mm )
12:54 am 00:54 Mostly Clear 64 17.8 61 16.1 90 90 Calm 29.98 1015 10 16 0.00 0.00
1:54 am 01:54 Partly Cloudy 63 17.2 60 15.6 90 90 Calm 29.99 1016 10 16 0.00 0.00
2:54 am 02:54 Partly Cloudy 62 16.7 60 15.6 93 93 W 3 6 29.98 1015 10 16 0.00 0.00
3:54 am 03:54 Mostly Cloudy 62 16.7 60 15.6 93 93 WSW 3 6 29.98 1015 10 16 0.00 0.00
4:54 am 04:54 Mostly Clear 63 17.2 60 15.6 90 90 Calm 30.00 1016 10 16 0.00 0.00
5:54 am 05:54 Partly Cloudy with Fog 63 17.2 60 15.6 90 90 Calm 30.01 1016 10 16 0.00 0.00
6:54 am 06:54 Mostly Sunny 65 18.3 61 16.1 87 87 Calm 30.03 1017 10 16 0.00 0.00
7:54 am 07:54 Hazy 70 21.1 64 17.8 82 82 Calm 30.04 1017 6 10 0.00 0.00
8:24 am 08:24 Mostly Cloudy 71 21.7 63 17.2 76 76 VRB 5 7 30.04 1017 10 16 0.00 0.00
8:54 am 08:54 Mostly Cloudy 72 22.2 62 16.7 71 71 Calm 30.05 1018 10 16 0.00 0.00
9:54 am 09:54 Mostly Cloudy 73 22.8 63 17.2 71 71 Calm 30.05 1018 10 16 0.00 0.00
10:54 am 10:54 Mostly Cloudy 74 23.3 62 16.7 67 67 SW 6 9 30.06 1018 10 16 0.00 0.00
11:54 am 11:54 Mostly Cloudy 76 24.4 62 16.7 62 62 Calm 30.06 1018 10 16 0.00 0.00
12:54 pm 12:54 Mostly Cloudy 77 25 62 16.7 60 60 NNE 3 6 30.06 1018 10 16 0.00 0.00
3:54 pm 15:54 Mostly Cloudy 81 27.2 63 17.2 54 54 VRB 3 6 30.03 1017 10 16 0.00 0.00
4:54 pm 16:54 Mostly Cloudy 82 27.8 63 17.2 53 53 WSW 5 7 30.03 1017 10 16 0.00 0.00
5:54 pm 17:54 Partly Cloudy 83 28.3 63 17.2 51 51 S 5 7 30.02 1017 10 16 0.00 0.00
6:54 pm 18:54 Mostly Sunny 81 27.2 66 18.9 61 61 E 7 11 30.04 1017 10 16 0.00 0.00
7:54 pm 19:54 Mostly Sunny 78 25.6 65 18.3 64 64 SE 8 13 30.05 1018 10 16 0.00 0.00
8:54 pm 20:54 Mostly Clear 75 23.9 64 17.8 69 69 SSE 6 9 30.06 1018 10 16 0.00 0.00
9:54 pm 21:54 Mostly Clear 73 22.8 64 17.8 74 74 Calm 30.07 1018 10 16 0.00 0.00
10:54 pm 22:54 Mostly Clear 72 22.2 64 17.8 76 76 SSW 3 6 30.06 1018 10 16 0.00 0.00
11:54 pm 23:54 Mostly Clear 69 20.6 64 17.8 84 84 Calm 30.07 1018 10 16 0.00 0.00

Powered by AerisWeather